Date String (YYYY-MM-DD hh:mm:ss) UTC,Instrument flags,absolute air pressure of the measurement (hPa),sample flow rate (lpm),inlet stack bypass flow (lpm),air temperature of the measurement (°C),ambient temperature measured by the external sensor (°C),aerosol sample conditioner tube jacket temperature (°C),OPC LED temperature (°C),internal box temperature (°C),relative humidity of the measurement (%),span deviation,mass concentration of particles derived from Lorenz-Mie calculation of OPC scattering (μg/m³),mass concentration of particles derived from Lorenz-Mie calculation of OPC scattering (μg/m³),mass concentration of particles derived from Lorenz-Mie calculation of OPC scattering (μg/m³)
DateTimeUTC,F1_M11,P_M11,Q1_M11,Q2_M11,T1_M11,T2_M11,T3_M11,T4_M11,T5_M11,U1_M11,ZSPAN_M11,X0_M11,X2_M11,X1_M11
2023-06-23 16:00:00,SystemResetWarning,0828.6,5.00,000.00,031.9,027.6,000.0,039.8,032.0,34.3,0001.9,0013.01,0007.26,0006.53
2023-06-23 16:01:00,SystemResetWarning,0828.6,5.00,000.00,031.9,025.7,000.0,039.7,031.9,33.5,0002.1,0013.29,0007.35,0006.61
2023-06-23 16:02:00,SystemResetWarning,0828.6,5.00,000.00,031.9,024.8,000.0,039.7,031.9,33.9,0002.0,0013.21,0007.44,0006.71
2023-06-23 16:03:00,SystemResetWarning,0828.6,5.01,000.00,031.8,024.9,000.0,039.7,031.6,34.2,0001.8,0013.40,0007.54,0006.80
2023-06-23 16:04:00,SystemResetWarning,0828.6,5.01,000.00,031.6,025.3,000.0,039.7,031.3,34.1,0001.8,0013.14,0007.66,0006.88
2023-06-23 16:05:00,SystemResetWarning,0828.6,4.99,000.00,031.4,025.8,000.0,039.6,031.3,34.3,0001.9,0013.22,0007.76,0006.96
2023-06-23 16:06:00,SystemResetWarning,0828.6,4.99,000.00,031.4,026.3,000.0,039.6,031.4,34.8,0002.0,0013.20,0007.80,0006.99
2023-06-23 16:07:00,SystemResetWarning,0828.6,5.02,000.00,031.4,026.7,000.0,039.6,031.4,34.9,0002.0,0013.27,0007.86,0007.02
2023-06-23 16:08:00,SystemResetWarning,0828.6,4.97,000.00,031.4,027.1,000.0,039.6,031.5,34.5,0002.0,0013.12,0007.92,0007.09
2023-06-23 16:09:00,SystemResetWarning,0828.6,5.00,000.00,031.4,027.4,000.0,039.6,031.6,34.8,0002.3,0013.15,0008.01,0007.18
2023-06-23 16:10:00,SystemResetWarning,0828.6,5.03,000.00,031.4,027.7,000.0,039.6,031.7,35.0,0002.7,0013.07,0008.05,0007.24
2023-06-23 16:11:00,SystemResetWarning,0828.6,4.97,000.00,031.5,027.9,000.0,039.6,031.8,34.5,0002.9,0012.91,0008.07,0007.27
2023-06-23 16:12:00,SystemResetWarning,0828.6,5.02,000.00,031.6,028.1,000.0,039.6,031.8,33.8,0002.9,0012.77,0008.08,0007.31
2023-06-23 16:13:00,SystemResetWarning,0828.6,5.01,000.00,031.6,028.2,000.0,039.6,031.8,33.7,0002.9,0012.59,0008.11,0007.33
2023-06-23 16:14:00,SystemResetWarning,0828.6,4.98,000.00,031.7,028.0,000.0,039.6,031.9,33.7,0003.0,0012.79,0008.13,0007.34
2023-06-23 16:15:00,SystemResetWarning,0828.6,5.01,000.00,031.7,026.3,000.0,039.6,032.0,34.0,0003.0,0012.88,0008.10,0007.34
2023-06-23 16:16:00,SystemResetWarning,0828.6,5.00,000.00,031.7,025.5,000.0,039.5,031.9,34.1,0002.9,0012.93,0008.09,0007.36
2023-06-23 16:17:00,SystemResetWarning,0828.6,5.00,000.00,031.6,025.6,000.0,039.5,031.7,33.9,0003.0,0012.81,0008.04,0007.35
2023-06-23 16:18:00,SystemResetWarning,0828.6,5.01,000.00,031.4,026.0,000.0,039.5,031.5,34.1,0003.0,0012.67,0008.02,0007.36
2023-06-23 16:19:00,SystemResetWarning,0828.6,4.99,000.00,031.4,026.4,000.0,039.5,031.5,34.6,0002.8,0012.64,0008.00,0007.36
2023-06-23 16:20:00,SystemResetWarning,0828.6,4.99,000.00,031.3,026.8,000.0,039.5,031.5,34.8,0002.5,0012.67,0008.01,0007.35
2023-06-23 16:21:00,SystemResetWarning,0828.5,5.01,000.00,031.3,027.1,000.0,039.5,031.5,34.5,0002.3,0012.66,0008.02,0007.35
2023-06-23 16:22:00,SystemResetWarning,0828.5,5.00,000.00,031.2,027.4,000.0,039.5,031.6,34.4,0002.3,0012.62,0008.02,0007.35
2023-06-23 16:23:00,SystemResetWarning,0828.5,4.99,000.00,031.2,027.7,000.0,039.5,031.6,34.7,0002.1,0012.67,0008.02,0007.33
2023-06-23 16:24:00,SystemResetWarning,0828.5,5.00,000.00,031.2,027.9,000.0,039.5,031.7,35.1,0002.2,0012.71,0008.03,0007.34
2023-06-23 16:25:00,SystemResetWarning,0828.6,5.00,000.00,031.3,028.1,000.0,039.5,031.8,34.7,0002.4,0012.65,0008.10,0007.38
2023-06-23 16:26:00,SystemResetWarning,0828.5,4.99,000.00,031.4,028.1,000.0,039.5,031.9,34.1,0002.4,0012.55,0008.16,0007.43
2023-06-23 16:27:00,SystemResetWarning,0828.5,5.00,000.00,031.5,026.7,000.0,039.4,032.0,33.7,0002.6,0012.95,0008.21,0007.43
2023-06-23 16:28:00,SystemResetWarning,0828.5,4.99,000.00,031.5,025.0,000.0,039.4,031.8,33.7,0002.5,0013.05,0008.25,0007.43
2023-06-23 16:29:00,SystemResetWarning,0828.5,5.02,000.00,031.5,024.6,000.0,039.3,031.7,33.8,0002.5,0013.07,0008.21,0007.40
2023-06-23 16:30:00,SystemResetWarning,0828.6,5.01,000.00,031.3,024.8,000.0,039.3,031.4,34.0,0002.7,0013.36,0008.14,0007.34
2023-06-23 16:31:00,SystemResetWarning,0828.5,4.99,000.00,031.2,025.3,000.0,039.3,031.2,34.3,0003.0,0013.19,0008.08,0007.30
2023-06-23 16:32:00,SystemResetWarning,0828.5,5.01,000.00,031.1,025.8,000.0,039.3,031.2,34.6,0003.2,0013.28,0008.06,0007.28
2023-06-23 16:33:00,SystemResetWarning,0828.4,5.00,000.00,031.1,026.3,000.0,039.3,031.2,34.5,0003.2,0013.24,0008.03,0007.25
2023-06-23 16:34:00,SystemResetWarning,0828.4,4.97,000.00,031.0,026.7,000.0,039.3,031.3,35.1,0003.1,0013.18,0008.02,0007.24
2023-06-23 16:35:00,SystemResetWarning,0828.4,5.05,000.00,031.1,027.0,000.0,039.3,031.4,35.1,0003.0,0013.18,0008.02,0007.24
2023-06-23 16:36:00,SystemResetWarning,0828.4,4.96,000.00,031.3,027.3,000.0,039.3,031.5,34.9,0002.8,0013.07,0007.99,0007.21
2023-06-23 16:37:00,SystemResetWarning,0828.4,5.02,000.00,031.4,027.6,000.0,039.3,031.7,34.4,0002.8,0012.96,0007.92,0007.17
2023-06-23 16:38:00,SystemResetWarning,0828.4,4.99,000.00,031.5,027.8,000.0,039.3,031.7,33.9,0002.8,0012.49,0007.87,0007.15
2023-06-23 16:39:00,SystemResetWarning,0828.5,5.00,000.00,031.6,028.0,000.0,039.4,031.7,33.7,0002.8,0012.33,0007.83,0007.13
2023-06-23 16:40:00,SystemResetWarning,0828.5,5.00,000.00,031.6,028.1,000.0,039.4,031.7,34.1,0002.6,0012.31,0007.80,0007.11
2023-06-23 16:41:00,SystemResetWarning,0828.5,5.00,000.00,031.6,028.3,000.0,039.5,031.8,34.4,0002.6,0012.00,0007.82,0007.13
2023-06-23 16:42:00,SystemResetWarning,0828.5,5.01,000.00,031.6,027.7,000.0,039.5,031.8,34.1,0002.7,0012.27,0007.84,0007.14
2023-06-23 16:43:00,SystemResetWarning,0828.4,4.99,000.00,031.7,025.7,000.0,039.4,031.8,34.7,0002.5,0012.42,0007.83,0007.12
2023-06-23 16:44:00,SystemResetWarning,0828.4,5.02,000.00,031.7,024.7,000.0,039.4,031.7,35.3,0002.3,0013.00,0007.84,0007.10
2023-06-23 16:45:00,SystemResetWarning,0828.4,5.01,000.00,031.7,024.7,000.0,039.4,031.5,34.0,0002.2,0013.04,0007.83,0007.09
2023-06-23 16:46:00,SystemResetWarning,0828.4,4.98,000.00,031.6,025.1,000.0,039.4,031.3,33.5,0002.2,0013.05,0007.83,0007.08
2023-06-23 16:47:00,SystemResetWarning,0828.4,5.01,000.00,031.6,025.6,000.0,039.4,031.3,33.6,0002.2,0013.06,0007.80,0007.06
2023-06-23 16:48:00,SystemResetWarning,0828.3,5.00,000.00,031.6,026.1,000.0,039.4,031.3,33.8,0002.3,0013.98,0007.79,0007.04
2023-06-23 16:49:00,SystemResetWarning,0828.3,4.99,000.00,031.5,026.5,000.0,039.5,031.3,34.4,0002.1,0014.06,0007.79,0007.02
2023-06-23 16:50:00,SystemResetWarning,0828.3,5.00,000.00,031.5,026.9,000.0,039.5,031.4,33.8,0001.8,0014.17,0007.79,0007.02
2023-06-23 16:51:00,SystemResetWarning,0828.3,5.00,000.00,031.5,027.2,000.0,039.5,031.4,33.8,0001.7,0014.22,0007.83,0007.04
2023-06-23 16:52:00,SystemResetWarning,0828.4,5.01,000.00,031.5,027.5,000.0,039.5,031.5,33.7,0001.7,0014.19,0007.84,0007.05
2023-06-23 16:53:00,SystemResetWarning,0828.4,4.98,000.00,031.5,027.7,000.0,039.6,031.5,34.0,0001.6,0013.80,0007.79,0007.05
2023-06-23 16:54:00,SystemResetWarning,0828.4,4.99,000.00,031.4,027.9,000.0,039.6,031.6,34.3,0001.5,0013.66,0007.77,0007.05
2023-06-23 16:55:00,SystemResetWarning,0828.4,4.99,000.00,031.4,028.1,000.0,039.6,031.6,34.7,0001.5,0012.94,0007.76,0007.06
2023-06-23 16:56:00,SystemResetWarning,0828.4,5.04,000.00,031.5,028.2,000.0,039.6,031.7,34.4,0001.7,0013.07,0007.81,0007.07
2023-06-23 16:57:00,SystemResetWarning,0828.4,4.96,000.00,031.5,027.5,000.0,039.6,031.9,33.4,0001.9,0013.14,0007.80,0007.06
2023-06-23 16:58:00,SystemResetWarning,0828.4,5.02,000.00,031.6,025.5,000.0,039.5,031.8,33.3,0002.0,0013.39,0007.75,0007.03
2023-06-23 16:59:00,SystemResetWarning,0828.3,5.00,000.00,031.6,024.6,000.0,039.4,031.8,33.3,0001.7,0012.96,0007.74,0007.01
